Regional Weather Roundup
Issued by NWS

Home | Current Version | Previous Version | Graphics & Text | Print | Product List | Glossary On
Versions: 1 2 3 4 5 6 7 8 9 10 11 12 13 14 15 16 17 18 19 20 21 22 23 24 25 26 27 28 29 30 31 32 33 34 35 36 37 38 39 40 41 42 43 44 45 46 47 48 49 50
000
ASUS43 KDTX 242210
RWRMI
MICHIGAN HOURLY REGIONAL WEATHER ROUNDUP
NATIONAL WEATHER SERVICE DETROIT/PONTIAC MI
600 PM EDT FRI MAR 24 2017

NOTE: "FAIR" INDICATES FEW OR NO CLOUDS BELOW 12,000 FEET WITH NO
SIGNIFICANT WEATHER AND/OR OBSTRUCTION TO VISIBILITY.

MIZ047>049-052>055-059>063-066>070-074>076-081>083-242300-
SOUTHEAST LOWER MICHIGAN

CITY           SKY/WX    TMP DP  RH WIND       PRES   REMARKS
ADRIAN         MOSUNNY   74  54  49 W17G26    29.96R
ALMA           CLOUDY    65  48  54 W5G20     29.93F
ANN ARBOR      MOSUNNY   75  50  41 SW16G25   29.92S
BAD AXE        CLOUDY    41  35  78 NE13      30.00R
CARO           CLOUDY    51  41  67 N13G23    29.95R
DETROIT CITY   MOSUNNY   75  52  44 SW16      29.91S
DETROIT        MOSUNNY   75  55  49 SW16      29.93S
FLINT          PTSUNNY   65  50  58 W10       29.94R
GROSSE ILE     MOSUNNY   73  55  51 SW10G17   29.92F
HILLSDALE      MOSUNNY   72  52  49 SW16G26   29.95R
HOWELL         PTSUNNY   71  49  45 N5        29.92R

CITY           SKY/WX    TMP DP  RH WIND       PRES   REMARKS
JACKSON        SUNNY     75  47  36 SW24G33   29.92S
LAMBERTVILLE   MOSUNNY   77  52  41 W17G25    29.95R
LANSING        MOSUNNY   71  49  45 NW8       29.92S
LAPEER         CLOUDY    66  50  55 N6        29.94R
MASON          CLOUDY    71  52  51 W7        29.92S
MONROE         SUNNY     74  55  50 MISG      29.93S
MT. CLEMENS    PTSUNNY   74  53  49 SW10      29.90S
PONTIAC        PTSUNNY   73  50  44 W10       29.91R
PORT HOPE        N/A     36  33  89 N15       29.99R WCI  27
PORT HURON     CLOUDY    70  50  49 CALM      29.92S
TRI CITIES     CLOUDY    47  40  76 NE21      29.97R
MIDLAND        CLOUDY    50  39  65 E14       29.95R
TROY           PTSUNNY   74  49  42 S3        29.93S
SAGINAW HB     CLOUDY    52  36  54 N22G29    29.96R
$$
MIZ043>046-050>051-056>058-064>065-071>073-077>080-242300-
SOUTHWEST LOWER MICHIGAN

CITY           SKY/WX    TMP DP  RH WIND       PRES   REMARKS
BATTLE CREEK   SUNNY     76  49  38 SW21G26   29.92S
BENTON HARBOR  MOSUNNY   70  42  36 W14       29.90S
BIG RAPIDS     MOSUNNY   57  40  52 N10G16    29.93R
COLDWATER      MOSUNNY   74  50  43 SW15G30   29.94S
FREMONT        FAIR      58  43  57 N8        29.93R
HOLLAND        MOSUNNY   66  48  52 NW5       29.91F
GRAND RAPIDS   PTSUNNY   67  47  48 W10       29.91S
IONIA          PTSUNNY   67  48  51 NW12      29.91R
KALAMAZOO      PTSUNNY   76  47  35 SW10      29.91S
LUDINGTON      CLOUDY    43  37  81 N13       30.00R
MARSHALL       MOSUNNY   76  47  36 W15G23    29.92S
MOUNT PLEASANT CLOUDY    65  47  52 NW6       29.92S
MUSKEGON       CLOUDY    56  43  61 NW8       29.93R
SOUTH HAVEN    MOSUNNY   60  43  53 W5        29.92R
$$
MIZ016>042-242300-
NORTHERN LOWER MICHIGAN

CITY           SKY/WX    TMP DP  RH WIND       PRES   REMARKS
ALPENA         LGT RAIN  35  35 100 N8        30.04R WCI  29
BEAVER ISLAND  CLOUDY    35  35  99 CALM      30.08R FOG
BELLAIRE       LGT SNOW  36  34  93 CALM      30.07R
CADILLAC       CLOUDY    38  35  89 N7        29.98R WCI  32
CHARLEVOIX     MIX PCPN  33  33 100 N7        30.10R WCI  27
FRANKFORT      DRIZZLE   36  33  90 N6        30.04R WCI  31
GAYLORD        RAIN      36  32  85 VRB5      30.04R FOG     WCI  32
GRAYLING       LGT RAIN  37  36  93 VRB5      30.01R WCI  34
HARBOR SPRINGS MIX PCPN  34  34  99 CALM      30.07R
HOUGHTON LAKE  CLOUDY    41  37  86 N7        29.99R
MANISTEE       CLOUDY    40  35  83 NE7       30.04R
OSCODA         CLOUDY    40  36  84 NE10      30.01R WCI  33
PELLSTON       LGT RAIN  35  32  88 N5        30.08R WCI  31
ROGERS CITY    LGT SNOW  34  32  94 N5          N/A  WCI  30
TRAVERSE CITY  LGT RAIN  36  34  92 N6        30.04R FOG     WCI  31
$$
MIZ007>008-015-242300-
EASTERN UPPER MICHIGAN

CITY           SKY/WX    TMP DP  RH WIND       PRES   REMARKS
KINROSS        CLOUDY    34  32  92 NW7       30.07R FOG     WCI  28
MACKINAC ISLAN CLOUDY    33  33 100 N5        30.07R WCI  29
NEWBERRY       CLOUDY    35  33  92 N7        30.07R WCI  29
S. S. MARIE    CLOUDY    39  33  79 CALM      30.06R
MUNISING         N/A     35  33  92 N8        30.11R WCI  29
$$
MIZ004>006-011>014-085-242300-
CENTRAL UPPER MICHIGAN

CITY           SKY/WX    TMP DP  RH WIND       PRES   REMARKS
MANISTIQUE     CLOUDY    36  36 100 N6        30.08R WCI  31
ESCANABA       CLOUDY    37  34  89 N7        30.11R WCI  32
MENOMINEE        N/A    N/A N/A N/A MISG        N/A
SAWYER-GWINN   CLOUDY    32  32 100 N14       30.10R FOG     WCI  22
$$
MIZ001>003-009>011-084-242300-
WESTERN UPPER MICHIGAN

CITY           SKY/WX    TMP DP  RH WIND       PRES   REMARKS
IRON MOUNTAIN  CLOUDY    37  32  82 N10       30.07R WCI  30
HOUGHTON       CLOUDY    36  30  79 NE9       30.13R WCI  29
COPPER HARBOR    N/A     35  33  92 NE10      30.15R WCI  27
IRONWOOD       CLOUDY    36  32  85 N9        30.12S WCI  29
$$

ABBREVIATIONS USED IN REMARKS
   TC - TEMPERATURE IN CELSIUS
  WCI - WIND CHILL INDEX
   HX - HEAT INDEX
  VSB - VISIBILITY





USA.gov is the U.S. government's official web portal to all federal, state and local government web resources and services.